Location: Chamberlain Observatory
(39.0028°N, 90.1630°W)
Time: 16:01:36
(UTC-05:00)

Daily predictions for brighter satellites

Satellite Brightness Start Highest point End
(mag) Time Altitude Azimuth Time Altitude Azimuth Time Altitude Azimuth
Cosmos 1607 4.2 20:53:58 10° NW 21:00:21 74° WSW 21:06:33 10° SSE
ARGOS 4.1 20:56:14 10° SE 21:00:59 32° ENE 21:05:45 10° N
USA 215 3.4 20:56:58 10° SE 21:03:30 79° NE 21:10:05 10° NW
Meteor 2-11 Rocket 4.4 20:57:50 10° S 21:03:52 80° E 21:09:58 10° N
Cosmos 1048 Rocket 4.1 20:59:25 10° S 21:04:36 59° ESE 21:09:53 10° NNE
Cosmos 1437 4.4 21:05:38 10° NNE 21:07:57 19° ENE 21:10:16 10° ESE
Cosmos 1400 Rocket 3.3 21:09:46 10° SSW 21:13:46 64° W 21:17:45 10° N
Cosmos 1844 Rocket 3.1 21:08:36 10° S 21:13:52 41° ESE 21:19:08 10° NE
NOAA 11 4.3 21:10:09 10° SSE 21:15:34 86° WSW 21:21:01 10° NNW
Resurs 1-3 4.1 21:11:42 10° S 21:16:02 62° W 21:20:23 10° NNW
Cosmos 1844 4.4 21:12:00 10° SSE 21:17:01 33° ESE 21:22:06 10° NE
Cosmos 1812 Rocket 4.3 21:17:02 10° NNW 21:21:18 55° W 21:25:35 10° S
Cosmos 1470 4.4 21:17:45 10° NNW 21:21:19 34° W 21:24:53 10° SSW
Aureole 1 Rocket 2.6 21:19:05 10° SSW 21:22:11 74° WNW 21:25:56 10° NNE
Cosmos 1346 Rocket 3.8 21:19:11 10° NNE 21:22:48 32° ENE 21:25:55 13° SE
Spot 2 Rocket 3.6 21:21:09 10° S 21:26:11 78° WSW 21:31:16 10° NNW
Cosmos 1452 Rocket 4.0 21:23:21 10° NNW 21:28:34 61° WSW 21:33:44 10° S
CZ-4B DEB 4.4 21:25:21 10° SSE 21:28:45 70° ENE 21:32:12 10° N
Cosmos 1953 Rocket 3.6 21:24:33 10° S 21:28:50 63° E 21:33:11 10° NNE
Cosmos 1420 Rocket 4.3 21:23:48 10° NNW 21:28:58 69° WSW 21:34:06 10° S
Meteor 1-24 Rocket 3.9 21:24:45 10° S 21:30:41 62° E 21:36:37 10° NNE
Cosmos 1758 Rocket 3.6 21:29:41 10° S 21:34:08 89° W 21:38:35 10° N
Resurs 01 Rocket 3.1 21:37:43 10° SSW 21:41:44 34° W 21:45:47 10° NNW
OAO 3 Rocket 3.4 21:39:56 10° WSW 21:44:46 54° S 21:48:39 15° ESE
Cosmos 1110 Rocket 4.4 21:41:27 10° N 21:46:27 46° ENE 21:49:55 19° SE
Cosmos 1908 3.8 21:44:41 10° N 21:48:21 40° E 21:50:27 22° SE
Meteor 2-5 Rocket 4.4 21:42:48 10° SSW 21:48:40 62° WNW 21:54:32 10° N
SL-8 R/B 3.8 21:44:26 10° WSW 21:49:15 79° NNW 21:54:07 10° NE
ATLAS 3B R/B 3.3 21:47:35 10° NNW 21:53:50 42° NE 21:58:38 16° ESE
SPOT 1/Viking Rocket 4.4 21:51:14 18° ESE 21:54:22 35° ENE 21:59:00 10° N
H-2A R/B 2.1 21:50:00 15° SSE 21:54:22 79° ENE 21:59:47 10° N
USA 238 DEB 4.1 21:48:34 10° NNW 21:55:37 58° NE 22:00:55 19° SE
USA 238 4.1 21:48:40 10° NNW 21:55:43 58° NE 22:01:01 19° SE
Cosmos 724 4.4 21:51:49 10° NNW 21:57:51 73° ENE 22:02:04 21° SE
Cosmos 921 Rocket 3.2 21:54:14 10° N 21:58:42 65° ENE 22:01:24 23° SSE
Cosmos 1340 3.7 21:55:33 10° NNE 21:58:58 31° ENE 22:00:19 24° ESE
Cosmos 1331 Rocket 4.3 21:54:45 10° N 21:59:52 55° ENE 22:03:01 23° SE
SPOT 5 3.7 21:57:07 21° SE 22:00:08 41° ENE 22:05:03 10° N
Cosmos 1238 Rocket 3.3 21:58:46 10° SSW 22:01:35 41° W 22:04:29 10° N
Cosmos 494 Rocket 3.9 21:57:20 10° SSW 22:02:34 79° ESE 22:07:50 10° NNE
ATLAS 3B CENTAUR R/B 4.4 21:48:24 10° SW 22:05:18 34° S 22:11:02 19° ESE
Meteor 2-1 Rocket 4.4 22:00:11 10° N 22:06:06 68° E 22:10:02 22° SSE
Lacrosse 5 3.5 22:02:13 10° WSW 22:06:54 37° NW 22:11:36 10° NNE
Iridium 18 4.3 22:06:05 26° S 22:07:51 85° E 22:11:37 10° N
MetOp-B 4.2 22:04:42 17° S 22:08:56 77° WSW 22:14:19 10° NNW
SL-08 RB Rocket 3.9 22:07:30 18° S 22:10:55 72° WSW 22:15:36 10° NNW
Cosmos 1674 2.7 22:08:02 16° S 22:11:02 79° W 22:14:53 10° N
Cosmos 1461 3.6 22:12:25 25° SSE 22:14:31 40° ESE 22:18:57 10° NE
Cosmos 1745 Rocket 4.2 22:08:46 10° N 22:14:56 54° E 22:18:28 25° SSE
Cosmos 1300 3.9 22:12:42 10° NNE 22:15:57 26° ENE 22:16:37 25° E
SL-08 R/B 4.4 22:13:38 10° N 22:19:48 76° E 22:23:42 24° SSE
DMSP B5D2-2 4.0 22:14:36 10° NNE 22:19:52 80° ESE 22:23:59 17° S
ATLAS 2AS CENTAUR R/B 3.6 22:13:36 10° SW 22:21:20 63° NW 22:29:24 10° NNE
Cosmos 220 Rocket 3.8 22:22:19 23° S 22:24:51 76° ESE 22:29:05 10° NNE
IGS 5A 4.1 22:26:14 32° ESE 22:27:22 40° ENE 22:31:16 10° N
Cosmos 1726 2.0 22:23:37 10° N 22:27:23 88° W 22:28:37 41° S
Meteor 2-10 4.1 22:22:01 10° N 22:27:29 79° E 22:30:25 29° SSE
Cosmos 1302 Rocket 4.3 22:22:50 10° N 22:28:02 54° ENE 22:30:15 32° SE
CARTOSAT-1 4.2 22:26:57 32° ESE 22:28:14 41° ENE 22:32:18 10° N
ERS-1 Rocket 3.2 22:26:45 23° S 22:29:50 65° WSW 22:34:51 10° NNW
Cosmos 2251 Rocket 3.4 22:31:27 20° S 22:35:12 78° ESE 22:40:32 10° NNE
Cosmos 2278 Rocket 2.1 22:34:38 23° S 22:38:15 67° ESE 22:43:54 10° NNE
Landsat 7 3.7 22:38:06 39° SSE 22:39:53 78° ENE 22:44:39 10° N
Meteor 1-21 Rocket 4.2 22:36:38 24° S 22:40:19 83° E 22:46:09 10° N
S3M 4.1 22:35:13 16° SSW 22:40:23 78° W 22:46:49 10° N
Cosmos 1076 Rocket 4.1 22:44:20 36° E 22:44:28 36° E 22:48:22 10° NNE
CZ-2C R/B 3.6 22:44:39 34° SE 22:46:56 54° ENE 22:52:32 10° N
Cosmos 1709 Rocket 4.3 22:42:19 10° N 22:48:20 49° E 22:50:29 35° SE
Meteor 1-29 3.0 22:46:41 10° NNE 22:49:47 62° ENE 22:49:47 62° ENE
Spot 1 4.2 22:49:08 48° SE 22:50:07 63° ENE 22:54:37 10° N
SL-14 R/B 3.3 22:53:37 52° SSW 22:54:28 75° W 22:58:24 10° N
COSMOS 2406 3.6 22:49:23 10° NNW 22:55:02 58° WSW 22:57:26 33° S
Helios 1A 3.5 22:55:31 38° SSW 22:56:43 51° W 23:00:50 10° NNW
NOSS 2-2 (E) 3.2 22:57:04 67° ESE 22:57:04 67° ESE 23:01:16 10° NE
Cosmos 1842 Rocket 4.0 22:53:03 10° NNW 22:57:19 57° W 22:58:39 39° SSW
NOSS 3-4 (A) 3.4 22:52:26 10° SSW 22:58:35 87° ESE 23:04:59 10° NE
NOSS 3-4 (C) 3.3 22:52:32 10° SSW 22:58:40 87° ESE 23:05:05 10° NE
Terra 1.7 22:58:07 51° SSE 22:59:18 80° ENE 23:04:05 10° N
CENTAUR R/B 3.9 22:54:24 10° NNW 23:01:53 43° NE 23:07:12 21° ESE
Helios 1B rocket 2.8 22:59:27 10° N 23:03:30 61° WNW 23:04:49 39° SW
ATLAS 5 CENTAUR R/B 1.5 23:15:44 57° SSW 23:16:39 90° W 23:21:29 10° NNE
APEX 4.0 23:14:56 10° NW 23:17:42 40° W 23:17:42 40° W
Cosmos 1703 4.1 23:21:50 39° NE 23:21:50 39° NE 23:24:45 10° NNE
Cosmos 2297 3.7 23:20:41 53° SE 23:21:23 57° ESE 23:26:59 10° NNE
Cosmos 2315 Rocket 4.0 23:19:31 41° S 23:21:56 88° W 23:28:19 10° N
Okean 3 Rocket 3.4 23:23:49 81° SSW 23:24:03 88° WNW 23:28:26 10° N
Spot 4 4.1 23:25:19 51° E 23:25:50 54° ENE 23:30:35 10° N
Cosmos 1626 2.6 23:27:30 56° WNW 23:27:30 56° WNW 23:31:02 10° N
NOSS 2-2 (D) 3.4 23:27:30 67° W 23:27:42 69° NW 23:31:57 10° NNE
Cosmos 2082 Rocket 2.5 23:22:13 10° NNW 23:27:51 57° ENE 23:29:05 47° ESE
OAO 3 Rocket 4.4 23:23:27 10° W 23:26:27 29° SW 23:26:27 29° SW
Cosmos 1833 Rocket 2.7 23:25:01 10° NNW 23:30:37 68° ENE 23:31:41 55° ESE
Cosmos 2221 3.2 23:27:30 10° NNW 23:31:38 45° W 23:32:03 43° WSW
SL-27 R/B 3.6 23:33:14 10° N 23:35:56 40° NNE 23:35:56 40° NNE
CZ-2C R/B 2.7 23:33:07 10° N 23:38:32 75° WNW 23:39:51 51° SW
Cosmos 2184 Rocket 4.3 23:34:18 10° N 23:40:26 50° E 23:41:40 44° ESE
Cosmos 1328 Rocket 4.4 23:38:21 10° N 23:42:01 39° ENE 23:42:01 39° ENE
RESURS DK-1 2.6 23:44:08 65° N 23:44:08 65° N 23:47:44 10° NNE
EO 1 Delta rocket 4.3 23:37:12 10° N 23:43:48 82° WNW 23:45:05 55° SSW
ATLAS 3B R/B 3.4 23:38:26 10° NW 23:44:23 37° WSW 23:45:53 33° SW
Cosmos 1943 Rocket 4.4 23:49:13 12° E 23:49:13 12° E 23:50:09 10° ENE
Cosmos 1455 3.0 23:46:51 10° N 23:49:42 49° N 23:49:42 49° N
